Regional Weather Roundup
Issued by NWS

Home | Current Version | Previous Version | Text Only | Print | Product List | Glossary Off
Versions: 1 2 3 4 5 6 7 8 9 10 11 12 13 14 15 16 17 18 19 20 21 22 23 24 25 26 27 28 29 30 31 32 33 34 35 36 37 38 39 40 41 42 43 44 45 46 47 48 49 50

290
ASUS43 KMKX 170700
RWRWI

WISCONSIN REGIONAL WEATHER ROUNDUP
NATIONAL WEATHER SERVICE MILWAUKEE/SULLIVAN WI
100 AM CST TUE JAN 17 2017

NOTE: "FAIR" INDICATES FEW OR NO CLOUDS BELOW 12,000 FEET WITH NO
SIGNIFICANT WEATHER AND/OR OBSTRUCTIONS TO VISIBILITY.

WIZ001-002-006>008-014>016-023>028-170800-
NORTHWEST WISCONSIN

CITY           SKY/WX    TMP DP  RH WIND       PRES   REMARKS
SUPERIOR ARPT  CLOUDY    19  16  89 CALM      30.02S
ASHLAND        PTCLDY    24  19  81 CALM      30.01S
HAYWARD        CLOUDY    29  22  75 N5        29.97F WCI  24
SIREN          CLOUDY    29  22  74 CALM      29.98S
CUMBERLAND     LGT SNOW  30  27  86 NE7       29.95F WCI  23
RICE LAKE      LGT SNOW  30  28  90 N9        29.97F WCI  22
CHETEK         LGT SNOW  31  31  97 NE3       29.94F
LADYSMITH      LGT SNOW  31  27  83 N5        29.97S WCI  27
EAU CLAIRE     NOT AVBL
MENOMONIE      LGT SNOW  33  33 100 N5        29.93F WCI  28
NEW RICHMOND   LGT SNOW  31  30  97 N8        29.95F WCI  23
OSCEOLA        LGT SNOW  30  25  81 N5        29.99F WCI  25
$$

WIZ003>005-009-010-017-018-170800-
NORTH CENTRAL WISCONSIN

CITY           SKY/WX    TMP DP  RH WIND       PRES   REMARKS
MANITOWISH WTR CLOUDY    23  22  97 CALM      29.95F
ARBOR VITAE    CLOUDY    28  23  81 CALM      29.95F
WOODRUFF       CLOUDY    28  23  81 CALM      29.95F
RHINELANDER    LGT SNOW  30  23  75 E3        29.95S
EAGLE RIVER    CLOUDY    22  20  93 CALM      29.95F
LAND O LAKES   CLOUDY    20  18  93 CALM      29.98S
PHILLIPS       MIX PCPN  29  24  80 CALM      29.94F
TOMAHAWK       LGT SNOW  29  26  88 CALM      29.95F
MEDFORD        MIX PCPN  31  30  96 NE7       29.90F WCI  24
MERRILL        LGT SNOW  31  31 100 E3          N/A
$$

WIZ029-030-035-036-043>047-170800-
CENTRAL WISCONSIN

CITY           SKY/WX    TMP DP  RH WIND       PRES   REMARKS
WAUSAU         MIX PCPN  32  31  96 NE7       29.90F FOG     WCI  26
MOSINEE        MIX PCPN  32  32 100 NE7       29.92F WCI  26
MARSHFIELD     LGT RAIN  33  31  92 E13       29.87F FOG     WCI  24
STEVENS POINT  MIX PCPN  31  31 100 NE8       29.90F WCI  24
WAUPACA        DRIZZLE   34  33  94 NE6       29.91F WCI  29
WAUTOMA        MIX PCPN N/A N/A N/A NE8       29.88F
WISC RAPIDS    LGT RAIN  33  33 100 E9        29.89F WCI  25
CAMP DOUGLAS   NOT AVBL
$$

WIZ011>013-019>022-031-037>040-048>050-170800-
NORTHEAST WISCONSIN

CITY           SKY/WX    TMP DP  RH WIND       PRES   REMARKS
ANTIGO         MIX PCPN  31  31  99 E9        29.93F WCI  23
SHAWANO        LGT RAIN  33  31  93 NE5       29.96S WCI  28
OCONTO         CLOUDY    32  31  96 NE5       29.96F WCI  27
STURGEON BAY   MIX PCPN  33  32  96 NE9       29.95F FOG     WCI  25
GREEN BAY      CLOUDY    34  34 100 NE13      29.92F FOG     WCI  25
MANITOWOC      NOT AVBL
APPLETON       RAIN      32  32 100 NE10      29.89F WCI  24
CLINTONVILLE   MIX PCPN  32  32 100 NE7       29.92F WCI  26
OSHKOSH        MIX PCPN  34  32  92 NE10      29.88F FOG     WCI  26
$$

WIZ032>034-041-042-053>061-170800-
SOUTHWEST WISCONSIN

CITY           SKY/WX    TMP DP  RH WIND       PRES   REMARKS
LA CROSSE      CLOUDY    36  33  89 NW6       29.88F FOG     WCI  31
SPARTA         MIX PCPN  32  32  99 CALM      29.88F
VIROQUA        CLOUDY    32  32 100 E3        29.83F
BOSCOBEL       CLOUDY    34  33  96 CALM      29.85F FOG
PRAIRIE DU CHI MIX PCPN  33  32  97 CALM      29.85F
PLATTEVILLE    CLOUDY    34  34 100 NE7       29.82F WCI  28
$$

WIZ056-057-062-063-064-067-068-170800-
SOUTH CENTRAL WISCONSIN

CITY           SKY/WX    TMP DP  RH WIND       PRES   REMARKS
REEDSBURG      CLOUDY    32  32 100 CALM      29.87S FOG
BARABOO/DELLS  CLOUDY    32  32 100 NE5       29.86F FOG     WCI  27
LONE ROCK      NOT AVBL
MINERAL POINT  LGT RAIN  34  34 100 NE5       29.82F WCI  30
MADISON        LGT RAIN  34  33  96 N6        29.83F FOG     WCI  29
MIDDLETON      CLOUDY    35  35 100 NE6       29.84F WCI  30
WATERTOWN      CLOUDY    34  34 100 NE6       29.83F FOG     WCI  29
MONROE         SNOW      34  34 100 NE10      29.80F VSB 1/4 WCI  26
JANESVILLE     CLOUDY    36  36 100 NE6       29.80F FOG     WCI  31
$$

WIZ051-052-058>065-066-070>072-170800-
SOUTHEAST WISCONSIN

CITY           SKY/WX    TMP DP  RH WIND       PRES   REMARKS
MILWAUKEE      DRZL/FOG  37  35  92 NE10      29.83F VSB 1   WCI  30
WAUKESHA       FOG       32  32 100 NE8       29.84F VSB 1   WCI  25
MILWAUKEE/TIMM CLOUDY    34  32  93 E7        29.86F FOG     WCI  28
RACINE         FOG       37  36  96 E12       29.83F VSB 1/2 WCI  29
KENOSHA        FOG       37  36  96 E8        29.80F VSB 1/4 WCI  31
FOND DU LAC    CLOUDY    35  32  88 E6        29.87F WCI  30
SHEBOYGAN      LGT RAIN  34  33  96 E8        29.88F FOG     WCI  27
WEST BEND      LGT RAIN  34  34 100 E8        29.86F WCI  27
JUNEAU         LGT SNOW  33  33  99 NE8       29.86F VSB 3/4 WCI  26
$$

LSZ147-162-170800-
LAKE SUPERIOR

STATION/POSITION TIME  TEMP    WIND        PRES    WAVE
                       AIR SEA DIR/SP/G            HT/PER
                 (UTC) (F)     (DEG/KT/KT) (MB)    (FT/S)
DEVILS ISLAND    0600   33      60/  7/  7 1017.2F
PORT WING        0640   22     130/  2/  3 1016.3F
SAXON HARBOR     0640   25     200/  3/  4 1016.3S
$$

LMZ867-665-643>646-170800-
LAKE MICHIGAN

STATION/POSITION TIME  TEMP    WIND        PRES    WAVE
                       AIR SEA DIR/SP/G            HT/PER
                 (UTC) (F)     (DEG/KT/KT) (MB)    (FT/S)
NORTHPORT PIER   0640   32        CALM     1015.9F
SISTER BAY       0550   33     120/  4/  6   N/A
KEWAUNEE LAKESHO 0630   35      70/  6/  9 1013.5F
SHEBOYGAN LAKESH 0600   36     100/  8/  9 1013.5F
PORT WASHINGTON  0640   36      90/  7/ 10 1012.9F
MILWAUKEE LAKESH 0630   36      50/  6/  7   N/A
KENOSHA   LAKESH 0600   36     100/ 14/ 15 1010.8
$$

TC  - TEMPERATURE IN CELSIUS
VSB - VISIBILITY IN STATUTE MILES
WCI - WIND CHILL INDEX
HX  - HEAT INDEX





USA.gov is the U.S. government's official web portal to all federal, state and local government web resources and services.